RH
22 37 37 30 27 27 28 26 25 26 26 27 27 28 29 30 31 32 32 32 33 33 33 34 34 33 33 33 32 31 30 29 28 27 27 26 26 25 24 24 24 24 25 25 25 24 24 24 23 23 24 23
30 39 35 29 27 28 28 25 24 24 24 26 27 28 29 30 31 31 31 31 30 30 30 30 31 31 32 32 32 31 31 31 30 29 29 28 28 27 27 27 27 27 27 27 27 26 25 25 25 25 25 23
35 38 33 28 27 28 27 25 23 23 23 25 26 26 27 28 29 28 28 26 25 24 24 25 26 27 29 30 31 31 31 32 32 32 32 32 32 31 31 31 30 30 30 29 28 28 27 26 26 26 25 23
37 36 32 28 27 27 26 24 22 21 22 23 23 24 24 25 25 25 24 22 21 20 20 20 21 22 24 26 27 29 30 31 31 32 32 33 34 34 34 34 33 33 32 31 30 29 28 27 27 26 25 23
38 35 32 29 27 27 26 24 21 20 20 21 21 21 21 21 22 22 21 20 19 18 18 19 19 20 20 21 23 25 26 29 30 31 32 33 33 34 34 35 34 34 33 32 31 30 29 28 28 27 25 24
38 35 32 30 28 27 26 24 21 18 18 19 19 19 19 18 19 19 19 19 18 18 18 18 19 21 21 21 22 22 24 26 28 30 31 32 33 34 35 35 35 34 34 32 31 30 30 29 29 28 26 25
38 35 33 31 29 27 26 24 21 18 16 16 17 17 17 17 17 17 18 18 18 18 18 19 20 22 23 24 24 24 24 25 27 29 31 33 34 36 36 36 36 34 33 33 32 32 31 31 30 29 27 25
38 36 35 33 30 28 26 24 21 18 16 15 14 15 15 15 15 16 17 17 18 18 18 19 20 22 25 27 27 27 27 27 28 30 32 33 35 36 38 37 36 35 34 34 34 33 33 32 31 29 28 26
39 38 37 35 32 29 27 24 21 19 16 15 13 13 12 13 14 15 16 17 18 18 19 20 20 21 24 27 30 30 30 30 31 32 34 35 36 37 38 38 38 37 37 36 36 35 35 33 32 30 28 27
40 39 38 37 34 30 27 25 22 19 17 15 14 12 11 11 12 14 15 17 18 19 20 21 21 21 23 26 30 32 32 31 32 33 35 36 38 39 40 41 40 40 39 39 38 37 36 34 33 31 29 29
41 41 40 39 36 32 29 26 23 20 17 16 14 12 11 10 11 12 15 17 18 19 21 22 22 21 22 25 29 32 33 32 32 34 36 39 40 42 43 43 43 42 41 41 40 38 37 35 33 32 31 31
43 43 42 40 37 34 30 27 25 22 19 16 14 13 11 10 9 11 14 17 18 19 21 22 22 21 22 24 28 31 33 34 35 36 39 41 43 45 45 46 45 44 43 42 41 40 38 36 34 33 33 33
44 45 44 42 39 36 32 29 27 24 22 19 16 13 11 9 9 10 13 16 18 19 21 22 23 22 22 23 26 29 33 36 38 39 41 44 45 46 47 47 47 46 45 43 42 40 38 36 35 35 35 36
46 46 46 44 41 38 35 32 29 27 25 22 19 14 11 9 8 9 12 16 18 19 20 22 23 23 23 23 25 28 31 36 39 40 42 44 46 48 49 48 48 46 45 44 43 41 39 38 37 37 38 39
48 49 48 46 44 41 38 35 32 30 28 26 22 17 12 9 8 8 11 15 17 18 20 22 23 23 23 24 25 27 29 33 37 40 42 43 46 47 49 49 48 47 45 44 43 42 41 40 40 41 41 42
49 50 50 48 46 43 41 38 36 34 31 28 23 18 13 9 8 7 10 15 17 18 19 21 22 23 24 25 26 27 29 31 34 38 41 43 44 45 46 47 47 47 46 46 45 44 43 43 44 44 44 43
51 52 53 51 49 47 45 42 39 36 32 28 23 17 12 8 7 7 9 14 17 17 18 21 22 23 24 25 28 29 29 31 32 34 37 40 42 44 45 46 46 46 46 46 46 46 46 46 47 47 46 43
54 55 55 53 52 50 48 46 43 39 34 28 22 15 10 7 6 7 8 12 17 17 18 20 22 23 24 25 28 30 31 31 33 34 35 36 39 41 44 45 46 45 44 45 45 46 48 50 50 49 46 43
57 58 57 56 55 54 52 50 46 41 35 28 20 13 8 6 6 6 8 11 16 17 17 19 21 23 24 25 28 31 33 32 33 35 36 37 37 38 40 43 46 46 46 46 46 47 48 50 51 50 46 44
59 61 60 59 58 57 55 53 49 43 36 28 20 13 8 6 6 6 7 10 15 17 17 18 20 23 24 25 28 31 34 34 33 34 38 40 40 39 38 39 43 47 50 50 49 48 48 49 50 49 48 46
61 64 63 63 62 60 58 56 52 45 37 29 21 14 9 6 6 6 7 9 14 17 17 18 19 21 23 24 26 31 34 34 32 33 35 39 42 43 42 40 40 43 48 52 52 51 49 49 49 49 49 49
63 66 67 66 66 63 61 58 53 47 39 30 22 15 10 7 6 6 7 9 13 16 18 18 18 20 22 23 25 28 33 34 33 31 32 35 39 43 45 44 43 42 44 48 52 53 52 51 51 52 53 53
63 68 71 70 69 66 63 60 55 50 41 31 22 16 11 8 7 6 7 9 12 16 18 18 18 18 20 21 23 25 29 33 32 30 29 30 32 37 42 46 47 45 44 45 48 52 54 54 55 56 56 56
66 70 73 73 71 69 67 62 57 52 42 32 23 17 13 10 8 7 7 8 11 15 18 19 18 18 18 20 21 22 25 29 31 30 28 27 28 31 36 42 47 49 48 47 48 51 55 57 58 58 59 58
68 71 73 74 73 73 71 64 60 55 44 33 25 19 15 12 10 8 7 8 10 13 16 18 19 18 18 18 19 21 23 26 29 30 29 28 27 28 31 37 45 50 51 51 51 54 57 59 59 60 59 58
69 70 72 75 75 75 73 67 64 58 46 35 28 21 17 15 12 10 9 8 9 11 14 17 18 19 18 18 18 19 21 24 27 29 31 31 29 28 29 33 41 49 53 55 56 57 59 60 60 60 59 58
68 69 71 73 74 75 73 69 67 58 47 39 30 23 20 17 14 12 11 10 10 10 12 15 16 18 19 18 17 17 19 21 24 28 31 33 33 30 29 32 38 47 55 58 60 60 61 61 60 60 59 58
66 67 70 72 73 74 73 72 70 59 49 40 30 25 23 19 15 14 13 12 11 10 11 13 14 16 18 18 17 16 17 19 22 26 31 35 35 33 32 33 38 47 57 62 63 63 63 61 60 59 58 57
66 69 72 74 74 73 73 74 69 58 46 35 28 28 25 20 17 15 14 14 12 12 12 12 12 14 15 16 16 16 16 18 20 24 30 36 38 37 35 35 39 48 59 65 66 66 65 62 60 58 57 56
70 73 76 76 74 70 66 65 59 50 40 31 29 30 26 21 20 17 16 16 14 13 13 12 12 12 12 13 14 15 15 16 18 21 27 35 39 39 37 36 41 50 61 68 69 69 68 64 61 60 58 58
69 72 75 75 69 58 50 49 46 40 35 31 31 33 28 23 21 20 19 17 15 15 14 13 13 12 12 12 12 14 14 15 17 19 25 33 38 40 39 39 44 53 64 72 72 71 69 65 62 61 60 60
Wind_Speed
18 17 15 14 14 14 14 14 14 13 13 13 14 14 14 15 15 14 15 15 15 16 16 16 16 16 16 16 16 16 16 16 16 16 16 16 16 16 17 17 17 17 17 17 17 17 18 18 19 20 21 22
17 16 15 14 14 13 14 14 13 13 12 13 13 14 14 14 14 14 14 14 14 15 15 16 16 16 17 17 17 17 17 17 17 17 17 17 17 17 17 17 18 17 17 17 17 18 19 19 20 21 22 23
17 15 14 14 13 13 14 14 13 12 12 13 13 14 14 14 14 14 14 14 15 15 16 16 16 16 16 17 17 17 18 18 18 18 18 18 18 18 18 18 18 18 18 18 18 19 20 20 21 22 23 24
16 15 14 14 13 13 14 14 14 13 13 13 13 14 15 15 15 15 16 16 17 17 17 18 18 17 17 17 17 17 18 18 19 19 19 19 19 19 19 19 19 19 19 19 19 20 20 21 22 23 24 24
17 16 15 14 14 14 15 15 15 14 13 14 14 15 15 16 17 17 18 18 19 19 19 20 20 19 19 18 18 18 18 18 19 19 19 20 20 20 20 19 19 19 19 19 20 21 21 22 23 24 25 25
17 16 15 14 14 15 16 16 16 15 14 14 15 15 16 17 17 18 19 19 20 21 21 21 21 21 20 20 19 19 19 19 19 19 20 20 20 20 19 19 19 19 20 20 21 21 22 23 24 25 25 26
17 16 15 15 15 16 17 17 17 16 15 15 15 16 17 17 18 18 19 20 21 21 22 22 22 22 21 20 20 20 19 19 19 19 20 20 20 19 19 19 19 20 20 21 21 22 23 24 25 26 26 27
18 17 16 16 16 17 18 18 18 17 16 16 16 17 17 18 18 19 20 21 22 22 23 23 23 23 22 21 20 20 20 20 20 20 20 20 20 20 20 20 20 21 21 22 22 23 23 24 25 26 27 28
19 17 17 16 17 18 18 19 19 18 17 16 17 17 18 19 19 19 20 21 22 23 23 24 23 23 23 22 21 20 20 20 20 20 21 21 21 21 21 21 21 21 22 22 23 23 24 25 26 27 28 29
19 18 17 17 18 19 19 20 20 19 18 18 18 18 19 19 19 20 21 22 23 23 24 24 24 24 23 23 22 21 20 20 20 21 21 22 22 22 22 22 22 22 23 23 24 24 25 26 27 28 29 30
20 19 18 18 19 19 20 21 20 20 20 19 19 19 19 20 20 20 21 22 22 23 24 25 25 24 24 23 23 22 21 20 20 21 21 21 22 22 23 23 23 23 24 24 25 26 27 28 29 30 30 31
21 20 19 19 20 20 21 21 21 21 21 20 20 20 20 20 21 21 21 21 22 23 24 25 25 25 24 24 23 23 22 21 20 20 20 21 22 22 23 24 24 24 25 25 26 27 28 29 30 31 32 33
22 20 20 20 20 21 21 22 22 22 22 22 22 22 21 21 21 21 21 22 22 23 24 25 25 25 25 24 24 24 23 22 21 21 20 20 21 22 23 24 25 25 26 27 28 28 29 30 31 32 33 34
22 21 21 21 21 22 22 23 23 23 23 23 23 23 23 22 22 22 22 22 22 23 24 24 25 25 25 25 25 24 23 23 22 22 21 21 21 22 23 24 25 27 28 29 30 30 31 32 33 34 35 36
23 22 21 22 22 22 22 23 24 24 25 25 25 24 24 23 23 23 22 22 22 23 24 25 25 25 25 25 25 25 24 24 23 23 23 23 23 23 24 25 27 28 29 31 32 33 33 34 35 35 36 37
24 23 22 23 23 23 23 24 24 25 26 26 26 26 25 24 23 23 23 23 23 23 24 25 25 25 25 25 25 25 25 25 25 25 25 25 24 25 25 27 28 30 31 33 34 35 36 36 36 37 38 38
24 23 23 24 24 24 24 25 25 26 27 27 27 26 26 25 24 24 24 24 23 24 24 25 25 25 25 25 25 26 26 26 26 26 26 27 27 27 27 28 29 31 32 34 35 37 38 38 38 38 39 40
24 24 24 25 25 25 26 26 27 28 28 28 27 26 26 25 25 25 25 24 24 24 24 25 25 25 25 25 26 26 27 27 27 27 28 28 29 29 29 29 30 32 33 34 36 38 39 40 40 40 40 41
25 25 25 25 26 26 27 27 28 29 29 29 27 26 26 26 26 26 25 25 25 25 25 25 25 25 25 25 26 27 27 28 28 29 29 30 30 31 31 31 31 32 34 35 36 38 40 41 41 41 41 42
26 26 25 26 26 27 28 28 29 30 30 29 28 27 26 26 26 26 26 26 26 25 25 25 26 25 25 25 26 27 28 28 29 30 31 31 32 32 33 33 33 33 34 35 37 38 40 41 42 42 43 43
27 26 26 26 27 28 29 30 30 31 31 30 28 27 26 26 26 27 27 27 27 26 26 26 26 26 26 26 26 27 28 29 30 31 32 32 33 34 35 35 35 35 36 36 37 38 40 41 42 43 43 44
28 27 27 27 28 29 30 31 32 32 31 30 29 27 27 26 27 27 27 28 28 28 27 27 27 27 27 27 27 28 29 29 30 31 32 33 34 35 36 37 37 37 37 38 38 39 40 41 42 43 43 44
29 27 27 28 28 30 31 32 33 32 32 31 29 28 27 27 27 27 28 28 29 28 28 28 28 28 28 28 28 28 29 30 31 32 33 34 35 36 38 38 39 39 39 39 40 40 41 41 42 43 44 45
30 29 28 29 29 30 32 32 33 33 33 32 30 29 28 28 28 28 28 29 30 30 29 29 29 29 29 29 29 29 30 31 32 33 34 35 36 37 39 40 40 41 41 41 41 41 41 42 42 43 44 45
31 30 29 30 31 31 32 33 33 34 33 32 31 30 29 29 28 28 29 30 30 31 30 30 30 31 31 31 31 31 31 32 33 33 34 35 37 38 40 41 42 42 43 43 42 42 42 42 42 43 44 45
32 31 31 31 32 32 33 34 34 34 34 33 32 31 30 30 30 29 30 30 31 32 31 31 32 32 32 32 32 32 33 33 34 34 35 36 38 39 41 42 43 44 44 44 43 43 42 42 42 42 43 44
33 33 32 33 33 33 34 34 35 35 34 33 33 32 32 31 31 31 31 31 32 32 32 33 33 33 33 34 34 34 34 34 35 35 36 37 38 40 42 43 44 45 45 45 44 43 43 42 42 42 43 44
34 33 33 34 34 34 35 35 35 35 35 34 34 33 33 33 32 32 32 32 33 33 33 34 34 34 35 35 35 36 36 36 36 36 37 38 39 41 42 44 45 45 45 45 45 44 43 43 42 43 43 44
34 34 34 35 35 35 35 35 36 36 36 35 34 34 34 34 34 34 34 34 34 34 34 34 35 35 36 36 37 37 38 38 37 37 37 39 40 41 43 44 45 46 46 46 45 44 44 43 43 43 44 45
34 35 35 36 37 37 37 36 36 36 36 35 35 35 36 35 35 35 35 35 35 35 35 35 35 36 37 37 38 38 39 39 40 39 38 39 41 42 43 44 45 46 46 46 45 44 44 43 43 44 44 45
35 36 37 38 39 38 37 36 36 36 36 37 36 36 37 37 37 37 37 37 37 37 37 37 37 37 37 38 39 39 40 40 41 41 40 40 42 43 44 45 46 46 46 46 45 44 44 43 43 44 45 46
Wind_Direction
282 281 285 290 296 304 309 310 313 317 320 323 326 329 331 331 330 329 328 326 324 322 320 318 317 314 311 309 306 304 302 300 299 298 297 296 296 295 294 293 292 292 292 293 293 293 293 293 294 296 296 297
277 279 283 287 295 303 306 307 310 315 318 322 327 331 332 332 331 331 330 328 327 326 324 322 320 317 314 310 307 305 302 300 298 297 296 295 293 292 291 290 290 291 291 292 292 292 292 293 294 295 295 296
273 276 279 284 292 300 302 304 307 311 315 320 326 329 330 330 329 329 329 330 331 331 329 326 324 321 317 313 309 306 303 300 298 296 294 292 291 290 289 289 290 290 290 290 290 291 291 292 292 293 293 295
270 273 276 281 289 295 298 299 302 306 312 318 322 325 327 327 326 326 328 330 331 331 330 328 326 323 319 315 312 308 305 302 299 296 293 292 290 289 289 289 288 288 288 288 288 288 289 289 290 291 293 295
267 270 273 279 286 291 294 295 298 302 308 313 318 321 322 323 323 324 326 328 328 328 329 328 326 323 319 316 313 310 307 304 301 298 295 292 290 289 288 287 287 286 286 285 285 285 286 287 289 291 294 296
264 267 271 277 282 287 289 292 294 298 304 308 313 316 317 318 319 321 323 324 324 325 326 326 324 322 320 317 314 311 307 305 302 298 295 292 290 288 286 285 284 283 282 282 282 283 285 287 289 292 294 295
262 265 269 274 279 283 285 289 291 295 300 304 308 311 313 313 316 318 320 321 322 323 323 323 323 323 321 319 316 312 309 305 302 298 295 291 289 286 284 283 282 280 280 280 281 282 284 287 289 291 293 294
260 263 267 272 276 280 283 286 289 293 297 301 305 307 309 310 313 315 317 319 320 321 321 321 322 323 322 321 319 315 312 308 304 301 296 292 288 285 283 281 280 279 278 279 280 282 284 287 289 290 292 294
259 262 266 270 275 277 280 283 287 291 294 299 303 305 306 307 310 312 314 317 319 319 319 319 321 322 323 322 321 319 316 313 309 304 299 294 289 285 282 280 278 278 278 279 281 283 285 287 288 290 292 293
257 260 264 269 273 275 278 281 285 289 292 296 300 302 303 304 306 307 310 314 315 316 317 318 319 321 322 323 323 322 320 318 313 307 302 296 290 286 283 280 278 278 278 280 282 284 286 287 288 290 291 293
256 259 263 268 272 274 277 280 283 287 290 294 297 299 300 300 301 302 306 310 312 314 315 317 319 321 323 324 324 324 322 320 315 310 304 298 292 288 284 281 279 279 280 282 284 286 287 288 288 290 291 293
256 258 262 267 271 274 276 279 282 285 288 291 294 296 296 297 297 298 301 305 309 311 314 316 318 320 322 324 324 323 323 321 317 312 305 299 294 289 286 283 282 283 283 285 286 287 288 288 289 291 293 294
256 258 262 266 270 273 275 278 281 283 286 289 291 292 293 294 294 294 297 301 306 309 313 315 317 319 320 322 323 323 323 322 319 313 307 301 296 292 289 287 286 286 286 287 288 288 289 290 291 293 294 296
256 258 261 265 269 272 274 277 280 282 285 287 289 290 290 291 290 290 292 297 302 306 311 314 316 318 319 321 323 323 323 322 320 315 310 305 301 297 293 292 290 290 289 289 290 290 291 292 293 294 295 296
256 258 261 265 268 271 274 276 279 281 283 285 286 288 288 288 287 287 288 292 297 303 309 313 315 316 318 320 322 323 323 322 321 317 314 310 305 301 298 296 294 293 292 291 291 291 292 292 293 294 296 297
255 258 261 264 267 270 273 276 278 280 282 283 284 286 286 286 284 283 283 287 293 299 305 310 314 315 317 319 320 321 321 322 321 319 316 312 309 306 303 301 298 297 295 293 293 292 292 292 293 295 296 297
255 258 261 264 267 270 273 275 278 280 281 282 283 285 285 284 282 280 280 283 289 295 302 307 311 314 316 317 318 319 320 321 321 320 317 314 312 310 308 306 303 300 298 297 295 294 293 293 294 296 297 297
254 258 260 264 267 269 272 275 278 280 281 282 283 284 283 282 280 278 278 280 285 291 298 304 309 313 315 316 317 318 319 320 320 320 319 317 314 312 310 308 307 304 303 301 298 296 295 295 295 296 296 297
254 257 260 263 267 269 273 275 278 280 281 281 282 283 282 281 279 277 276 277 282 288 294 300 306 311 313 315 316 317 318 319 320 320 319 318 316 314 312 310 309 307 306 304 302 299 297 296 296 296 297 297
253 256 260 263 266 269 273 276 278 280 280 281 282 282 281 280 278 275 274 275 279 284 290 296 302 307 311 313 314 317 318 318 318 319 319 319 318 316 314 312 311 310 308 306 304 302 300 298 297 297 297 298
253 256 259 262 266 269 273 276 278 280 280 281 282 282 281 280 278 275 273 274 277 281 286 292 298 303 308 310 313 315 317 317 317 317 318 319 318 317 315 313 312 311 309 307 305 303 302 300 300 299 299 299
253 255 259 262 265 269 272 275 278 280 281 282 282 282 281 280 279 276 273 273 275 279 283 288 293 299 304 307 310 313 315 316 316 316 317 317 318 318 317 315 313 312 310 308 306 304 303 302 301 301 300 301
254 255 257 261 264 268 272 275 278 280 281 282 282 282 281 280 280 278 275 273 274 277 280 285 289 295 300 304 306 309 312 314 315 315 316 317 317 317 317 316 314 312 311 310 308 306 304 303 302 301 302 302
254 254 256 260 264 267 271 274 277 279 281 282 282 282 281 281 281 279 277 274 274 276 279 282 286 291 296 300 303 306 309 312 314 315 315 316 316 316 316 316 315 314 312 310 309 308 307 305 304 303 303 303
253 254 256 259 263 266 270 274 277 279 281 282 282 282 282 282 282 281 280 277 275 276 278 280 284 288 292 296 300 303 306 309 312 314 315 315 315 315 315 316 316 315 313 312 311 310 309 308 307 306 305 305
253 254 256 258 262 266 270 273 276 279 280 282 282 282 283 284 283 283 282 280 278 277 278 279 282 285 289 293 297 300 303 307 310 312 314 315 314 314 314 315 316 316 315 314 313 312 311 310 309 309 308 307
253 254 256 259 262 265 269 272 275 278 280 281 281 283 284 285 285 285 285 284 282 280 279 279 281 283 287 290 294 297 301 304 307 310 312 314 314 314 314 314 315 316 315 315 314 314 313 312 311 311 310 309
253 256 258 260 262 265 268 271 274 277 278 279 281 283 285 285 286 286 287 286 285 283 281 280 281 283 285 288 292 295 298 301 304 307 311 313 314 314 314 314 314 315 316 315 315 314 313 313 312 312 312 311
255 258 259 261 263 264 266 269 272 275 277 279 281 283 284 285 286 287 287 287 287 286 284 283 282 283 285 287 290 293 296 299 301 305 309 311 313 313 313 313 314 314 315 315 315 315 314 314 314 314 313 312
253 256 258 260 261 262 264 267 270 273 276 278 280 281 283 284 285 286 287 288 288 288 287 286 285 285 285 287 289 292 295 297 300 302 306 309 311 313 313 313 313 313 315 315 315 315 315 315 315 315 314 313
250 253 255 257 258 260 263 266 269 273 275 277 278 279 281 282 284 286 287 288 288 288 288 288 288 287 287 287 289 291 294 296 298 300 303 307 309 311 313 313 312 313 314 315 315 315 315 316 316 316 315 314